TimeEDT,TemperatureF,Dew PointF,Humidity,Sea Level PressureIn,VisibilityMPH,Wind Direction,Wind SpeedMPH,Gust SpeedMPH,PrecipitationIn,Events,Conditions,WindDirDegrees,DateUTC
12:54 AM,66.9,59.0,76,29.92,10.0,NW,17.3,28.8,N/A,,Overcast,320,2013-05-21 04:54:00
1:54 AM,66.0,59.0,78,29.89,10.0,Calm,Calm,-,N/A,,Mostly Cloudy,0,2013-05-21 05:54:00
2:54 AM,64.0,59.0,84,29.89,10.0,South,4.6,-,N/A,,Mostly Cloudy,190,2013-05-21 06:54:00
3:54 AM,64.9,59.0,81,29.87,10.0,SSW,8.1,-,N/A,,Mostly Cloudy,200,2013-05-21 07:54:00
4:54 AM,66.0,60.1,81,29.87,10.0,SSW,5.8,-,N/A,,Mostly Cloudy,210,2013-05-21 08:54:00
5:54 AM,66.9,60.1,79,29.88,10.0,North,6.9,-,N/A,,Mostly Cloudy,10,2013-05-21 09:54:00
6:54 AM,68.0,61.0,78,29.90,10.0,Calm,Calm,-,N/A,,Overcast,0,2013-05-21 10:54:00
7:54 AM,70.0,61.0,73,29.91,10.0,South,3.5,-,N/A,,Overcast,180,2013-05-21 11:54:00
8:54 AM,71.1,62.1,73,29.90,10.0,South,3.5,-,N/A,,Mostly Cloudy,180,2013-05-21 12:54:00
9:54 AM,77.0,66.0,69,29.89,10.0,SW,4.6,-,N/A,,Mostly Cloudy,220,2013-05-21 13:54:00
10:54 AM,80.1,68.0,67,29.87,10.0,Variable,3.5,-,N/A,,Overcast,0,2013-05-21 14:54:00
11:54 AM,82.9,69.1,63,29.86,10.0,Calm,Calm,-,N/A,,Overcast,0,2013-05-21 15:54:00
12:54 PM,86.0,68.0,55,29.82,10.0,West,5.8,-,N/A,,Overcast,270,2013-05-21 16:54:00
1:54 PM,82.9,68.0,60,29.81,10.0,NE,10.4,-,N/A,,Overcast,40,2013-05-21 17:54:00
2:54 PM,84.0,69.1,61,29.78,10.0,ENE,8.1,-,N/A,,Mostly Cloudy,60,2013-05-21 18:54:00
3:54 PM,82.0,68.0,62,29.77,10.0,East,11.5,-,N/A,,Mostly Cloudy,100,2013-05-21 19:54:00
4:54 PM,82.0,68.0,62,29.77,10.0,NE,6.9,-,N/A,,Mostly Cloudy,50,2013-05-21 20:54:00
5:54 PM,82.0,68.0,62,29.76,10.0,East,5.8,-,N/A,,Mostly Cloudy,100,2013-05-21 21:54:00
6:54 PM,73.0,62.1,68,29.77,10.0,North,15.0,25.3,N/A,,Mostly Cloudy,10,2013-05-21 22:54:00
7:54 PM,69.1,61.0,75,29.78,10.0,ENE,9.2,-,N/A,,Mostly Cloudy,60,2013-05-21 23:54:00
8:28 PM,69.8,60.8,73,29.78,10.0,ENE,9.2,-,0.00,Rain-Thunderstorm,Light Thunderstorms and Rain,70,2013-05-22 00:28:00
8:44 PM,68.0,62.6,83,29.79,2.5,Variable,3.5,-,0.09,Rain-Thunderstorm,Heavy Thunderstorms and Rain,0,2013-05-22 00:44:00
8:54 PM,68.0,64.0,87,29.78,4.0,South,3.5,-,0.11,Rain-Thunderstorm,Light Thunderstorms and Rain,190,2013-05-22 00:54:00
9:24 PM,66.2,64.4,94,29.79,8.0,North,3.5,-,0.01,Rain,Light Rain,350,2013-05-22 01:24:00
9:54 PM,66.9,64.9,93,29.78,10.0,North,4.6,-,0.01,,Mostly Cloudy,360,2013-05-22 01:54:00
10:28 PM,66.2,64.4,94,29.79,9.0,Calm,Calm,-,N/A,,Mostly Cloudy,0,2013-05-22 02:28:00
10:54 PM,66.0,63.0,90,29.79,6.0,ENE,6.9,-,N/A,,Scattered Clouds,60,2013-05-22 02:54:00
11:54 PM,64.0,63.0,96,29.79,5.0,Calm,Calm,-,N/A,,Clear,0,2013-05-22 03:54:00